www.pogodaiklimat.ru

Погода и климат >> Архив погоды >> Сенегал >> Диурбель


ПОГОДА в Диурбеле

  • Прогноз погоды в Диурбеле
  • Монитор погоды в Диурбеле

АРХИВ ПОГОДЫ в Диурбеле

Время (UTC), дата Ветер
(напр.,м/с)
 
Видим.   Явления Облачность Т
(С)
Тd
(С)
f
(%)
Тe
(С)
Тes
(С)
Комфортность P
(гПа)
Po
(гПа)
Тmin
(С)
Tmax
(С)
R
(мм)
R24
(мм)
S
(см)
15 14.08 З 1 10 км 9/0
[Ci sp]
+36.7 +22.0 43 +45 +62 опасность
перегрева
1010.0 1009.0
18 14.08 З 4 10 км 9/0
[Ac cast Ci sp]
+32.9 +22.8 55 +43 +43 опасность
перегрева
1009.2 1008.2 +37.1
21 14.08 ЮЗ 3 8000 м 8/0
[Ac As]
+28.2 +22.3 70 +37 +37 очень
душно
1011.0 1010.0
00 15.08 З 1 8000 м 9/9 450 м
[Sc]
+27.7 +22.3 72 +36 +36 очень
душно
1012.6 1011.6
03 15.08 З 2 8000 м 5/0
[Ci sp]
+26.7 +22.3 77 +35 +35 очень
душно
1010.5 1009.5
06 15.08 З 1 8000 м 5/0
[Ci sp]
+25.9 +22.5 82 +34 +34 очень
душно
1010.4 1009.4 +25.7
09 15.08 штиль 0 10 км 9/4 450 м
[Sc Ac As Ci sp]
+27.0 +23.1 79 +36 +39 очень
душно
1012.2 1011.2
12 15.08 ЮЗ 3 10 км 9/8 450 м
[Sc Ci sp]
+32.0 +22.9 59 +42 +45 опасность
перегрева
1012.0 1011.0
15 15.08 ЮЗ 4 10 км 9/8 450 м
[Sc Ci sp]
+34.9 +23.2 51 +45 +47 опасность
перегрева
1010.0 1009.0
18 15.08 ЮЗ 3 10 км 6/5 450 м
[Cu med, cong Ci sp]
+33.2 +22.9 55 +43 +44 опасность
перегрева
1010.4 1009.4 +35.5
21 15.08 ЮЗ 2 8000 м 4/0
[Ac cast]
+29.7 +23.4 69 +40 +40 очень
душно
1012.1 1011.1
00 16.08 З 1 8000 м 4/0
[Ac cast]
+28.0 +24.1 79 +39 +39 очень
душно
1013.4 1012.4
03 16.08 штиль 0 8000 м слаб. дождь 10/0
[Ac As]
+27.6 +24.5 83 +39 +39 очень
душно
1012.6 1011.6
06 16.08 штиль 0 8000 м {дождь} 4/0
[Ac cast]
+26.6 +24.9 90 +38 +38 очень
душно
1012.1 1011.1 +26.6 0.1
09 16.08 штиль 0 10 км 5/5 450 м
[Sc]
+28.6 +25.4 83 +42 +46 опасность
перегрева
1013.0 1012.0
12 16.08 ЮЗ 2 10 км 6/6 450 м
[Sc]
+34.0 +23.5 54 +45 +53 опасность
перегрева
1012.5 1011.5
15 16.08 ЮЗ 3 10 км 10/6 480 м
[Cu Sc]
+36.8 +24.5 49 +49 +52 опасность
перегрева
1011.3 1010.3
18 16.08 ЮЗ 3 10 км 5/3 480 м
[Cb calv]
+35.6 +24.4 53 +48 +49 опасность
перегрева
1009.5 1008.5 +37.5
21 16.08 ЮЗ 3 8000 м зарница 5/4 450 м
[Cb calv]
+30.2 +24.2 70 +42 +42 опасность
перегрева
1011.8 1010.8
00 17.08 ЮЗ 2 8000 м зарница 8/1 450 м
[Cb calv Ci ing]
+29.0 +24.8 78 +41 +41 опасность
перегрева
1013.9 1012.9
03 17.08 штиль 0 8000 м ливневой дождь 10/0
[Ac As]
+27.8 +24.4 82 +39 +39 очень
душно
1012.2 1011.2
06 17.08 штиль 0 8000 м {дождь} 8/0
[Ac cast]
+26.6 +24.6 89 +38 +38 очень
душно
1012.0 1011.0 +26.0 0.2
09 17.08 штиль 0 10 км 5/4 600 м
[Cb calv]
+29.2 +25.4 80 +43 +47 опасность
перегрева
1013.0 1012.0
12 17.08 ЮЗ 1 10 км в посл. час дождь 8/4 450 м
[Cu Sc]
+30.3 +26.7 81 +47 +57 опасность
перегрева
1013.2 1012.2 1
15 17.08 штиль 0 10 км 8/4 480 м
[Cu Sc]
+34.6 +25.4 59 +49 +58 опасность
перегрева
1011.3 1010.3
18 17.08 СЗ 1 10 км гроза, ливневой дождь 10/5 480 м
[Cb cap As op]
+30.5 +27.8 86 +50 +50 опасность
перегрева
1010.3 1009.3 +35.6 8
21 17.08 ЮЗ 1 8000 м гроза, ливневой дождь 10/3 300 м
[Cb cap As op]
+26.3 +25.9 98 +39 +39 очень
душно
1012.4 1011.4
00 18.08 штиль 0 8000 м {гроза, дождь} 8/0
[Ac cast Ci sp]
+26.4 +25.3 94 +38 +38 очень
душно
1013.2 1012.2 25
03 18.08 Ю 2 8000 м зарница 10/3 900 м
[Cb calv Ac As]
+26.0 +26.3 100 +39 +39 очень
душно
1012.7 1011.7
06 18.08 штиль 0 8000 м слаб. дождь 10/0 600 м
[Ac As]
+25.2 +24.9 98 +36 +36 очень
душно
1012.2 1011.2 +25.1 34
09 18.08 штиль 0 10 км {дождь} 8/3 400 м
[Sc Ac As]
+25.4 +24.8 96 +36 +39 очень
душно
1013.1 1012.1
12 18.08 С 2 10 км {дождь} 8/5 450 м
[Sc Ac cast]
+30.0 +25.8 78 +45 +50 опасность
перегрева
1013.3 1012.3 0.2
15 18.08 СЗ 2 10 км 9/5 600 м
[Cu med, cong Ac cast Ci sp]
+32.6 +25.7 67 +48 +53 опасность
перегрева
1011.6 1010.6
18 18.08 ЮЗ 3 10 км 10/5 480 м
[Cb cap]
+31.5 +26.7 76 +49 +49 опасность
перегрева
1010.7 1009.7 +33.5 0.2
21 18.08 ЮЗ 2 8000 м гроза, ливневой дождь 10/5 900 м
[Cb cap As op]
+23.4 +23.1 98 +33 +33 очень
душно
1013.4 1012.4
00 19.08 штиль 0 8000 м гроза, ливневой дождь 10/3 300 м
[Cb cap As op]
+23.7 +23.6 99 +32 +32 очень
душно
1015.2 1014.2 47
03 19.08 С 3 8000 м слаб. дождь {гроза} 10/0
[As op]
+23.3 +23.3 100 +33 +33 очень
душно
1012.5 1011.5
06 19.08 С 1 8000 м {гроза, дождь} 10/0
[As op]
+23.3 +23.3 100 +33 +33 очень
душно
1012.0 1011.0 +23.3 50
09 19.08 штиль 0 10 км 10/4 400 м
[Sc Ac As]
+24.4 +23.8 96 +33 +35 очень
душно
1012.8 1011.8
12 19.08 штиль 0 10 км 9/4 450 м
[Sc Ac As Ci sp]
+27.8 +24.5 82 +39 +49 очень
душно
1012.8 1011.8
15 19.08 Ю 2 10 км 9/6 480 м
[Cu med, cong Ac cast Ci sp]
+30.7 +25.1 72 +44 +48 опасность
перегрева
1012.0 1011.0
18 19.08 штиль 0 10 км 9/5 480 м
[Sc Ac cast Ci sp]
+31.0 +25.4 72 +45 +46 опасность
перегрева
1011.3 1010.3 +31.4
21 19.08 штиль 0 8000 м 6/6 450 м
[Sc]
+29.5 +26.3 83 +45 +45 опасность
перегрева
1011.7 1010.7
00 20.08 С 2 8000 м 4/0
[Ac cast]
+27.6 +25.3 87 +40 +40 очень
душно
1013.0 1012.0
03 20.08 С 2 8000 м ясно +26.6 +25.8 95 +39 +39 очень
душно
1011.3 1010.3
06 20.08 штиль 0 8000 м 4/0
[Ac trans]
+26.3 +25.9 98 +39 +39 очень
душно
1011.3 1010.3 +26.3
09 20.08 С 2 10 км 9/4 400 м
[Sc Ac cast Ci sp]
+27.4 +26.0 92 +41 +43 опасность
перегрева
1012.3 1011.3
12 20.08 С 2 10 км 6/6 480 м
[Cu med, cong]
+31.4 +26.7 76 +48 +56 опасность
перегрева
1012.2 1011.2
15 20.08 ЮЗ 1 10 км 8/8 450 м
[Cu med, cong]
+34.0 +26.5 65 +51 +55 опасность
перегрева
1010.1 1009.1
18 20.08 штиль 0 10 км 8/5 450 м
[Cu med, cong Ci sp]
+35.0 +25.1 57 +49 +50 опасность
перегрева
1009.5 1008.5 +36.5
21 20.08 ЮЗ 2 8000 м 4/4 450 м
[Sc]
+30.6 +25.6 75 +45 +45 опасность
перегрева
1011.6 1010.6
00 21.08 З 1 8000 м зарница 4/3 450 м
[Cb calv]
+28.2 +25.2 84 +41 +41 опасность
перегрева
1012.5 1011.5
03 21.08 СЗ 2 8000 м 4/0
[Ac trans]
+27.1 +25.6 92 +40 +40 очень
душно
1010.7 1009.7
06 21.08 СЗ 2 8000 м 8/8 450 м
[Sc]
+26.8 +25.6 93 +39 +39 очень
душно
1010.8 1009.8 +26.8
09 21.08 ЮЗ 1 10 км 10/3 450 м
[Sc Ac As]
+27.1 +25.6 92 +40 +41 очень
душно
1012.2 1011.2
12 21.08 З 2 10 км 9/0
[Ac trans Ci sp]
+30.3 +25.3 75 +44 +57 опасность
перегрева
1012.1 1011.1

 

Местоположение метеостанции Диурбель (Сенегал): широта 14.65 долгота -16.23 высота над уровнем моря 9 м.

В архиве по умолчанию представлена погода в Диурбеле за последнюю неделю. Архивные данные за месяц целиком и за предыдущие месяцы, начиная с января 2011 года, Вы можете получить, выбрав интересующий диапазон дат из раскрывающегося списка и нажав кнопку "Ввод!".


*Определитесь, кто Вы:
робот инопланетянин человек

Внимание! Время в таблицах - всемирное. Для получения местного времени необходимо прибавить поправку, которая равна 0 ч.

Смотрите также архив погоды в соседних городах и на ближайших метеорологических станциях:

Погода в Каолаке (Сенегал) (61 км)
Погода в Сапу (Гамбия) (124 км)
Погода в Кереване (Гамбия) (130 км)
Погода в Банжуле Half-Die (Гамбия) (136 км)
Погода в Дакаре (Сенегал) (137 км)
Погода в Кауере (Гамбия) (143 км)
Погода в Лингере (Сенегал) (145 км)
Погода в Женое (Гамбия) (148 км)
Погода в Банжуле (Гамбия) (153 км)
Погода в Сент-Луисе (Сенегал) (157 км)

Пояснения к столбцам:

Ветер - указаны скорость ветра в м/с - средняя за 10 мин, порывы в срок и между сроками (в фигурных скобках) и направление, откуда дует ветер: С - северный, СВ - северо-восточный, В - восточный, ЮВ - юго-восточный, Ю - южный, ЮЗ - юго-западный, З - западный, СЗ - северо-западный.
Видимость - горизонтальная дальность видимости в метрах или километрах. При видимости от 1 до 10 км при отсутствии осадков обычно наблюдается дымка, при ухудшении видимости до 1 км и менее - туман. В сухую погоду видимость может ухудшаться дымом, пылью или мглою.
Явления - указаны атмосферные явления, наблюдавшиеся в срок или в последний час перед сроком; фигурными скобками обозначены явления, наблюдавшиеся между сроками (за 1-3 часа до срока); квадратными скобками обозначены град или гололедные отложения с указанием их диаметра в мм.
Облачность - указаны через наклонную черту общая и нижняя облачность в баллах и высота нижней границы облаков в метрах; квадратными скобками обозначены формы облаков: Ci - перистые, Cs - перисто-слоистые, Cc - перисто-кучевые, Ac - высококучевые, As - высокослоистые, Sc - слоисто-кучевые, Ns - слоисто-дождевые, Cu - кучевые, Cb - кучево-дождевые. Подробнее классификацию облаков см. в Атласе облаков (PDF).
T - Температура воздуха - температура, измеренная на высоте 2 м над землей.
Td - Температура точки росы - температура, при понижении до которой содержащийся в воздухе водяной пар достигнет насыщения.
f - Относительная влажность воздуха - влажноcть воздуха, измеренная на высоте 2 м над землей.
Te - Эффективная температура - температура, которую ощущает одетый по сезону человек в тени. Характеристика душности погоды. При расчете учитывается влияние влажности воздуха и скорости ветра на теплоощущения человека.
Tes - Эффективная температура на солнце - температура, которую ощущает человек, с поправкой на солнечный нагрев. Характеристика знойности погоды. Зависит от высоты солнца над горизонтом, облачности и скорости ветра. Ночью, в пасмурную погоду, а также при ветре 12 м/с и более поправка равна нулю.
P - Атмосферное давление - приведенное к уровню моря атмосферное давление.
Po - Атмосферное давление - измеренное на уровне метеостанции атмосферное давление.
Tmin - Минимальная температура - минимум температуры воздуха на высоте 2 м над землей.
Tmax - Максимальная температура - максимум температуры воздуха на высоте 2 м над землей.
R - Количество осадков - Количество выпавших осадков за период времени, мм. При наведении курсора мыши на число - период времени, за который выпало указанное количество осадков.
R24 - Количество осадков - Количество выпавших осадков за 24 часа, мм.
S - Снежный покров - Высота снежного покрова, см. При наведении курсора мыши на число - состояние снежного покрова и степень покрытия местности в баллах.